Погода в Семисотке

Россия / Республика Крым     45°14′34″N   35°33′35″E
темп.,
°C
ветер,
м/с
пор.,
м/с
влажн.,
%
обл.,
%
осадки,
мм/ч
давл.,
гПа
погр.,
м
21 апреля, ср
ср2100:00+10з7128346 0.1 1012502
03:00+8юз478510 0.1 1014145
06:00+8юз358054 0.0 101581
09:00+13юз466264 0.0 1017789
12:00+14ю446269 0.6 1017845
15:00+14юз346193 1.1 1018832
18:00+13юз136841 0.3 1018573
21:00+11ююз127964 0.4 102032
22 апреля, чт
чт2200:00+9ююз01847 0.0 102012
03:00+9ююв22889 0.0 102118
06:00+8сз118937 0.0 102114
09:00+12св117238 0.0 1022316
12:00+14ссв126337 0.0 1023999
15:00+14ююв336341 0.1 1023743
18:00+14ююв45666 0.0 1022192
21:00+11з33770 0.0 102335
23 апреля, пт
пт2300:00+10юз23830 0.0 102325
03:00+9ююв33840 0.0 102236
06:00+9ю46852 0.0 1022107
09:00+13ю6864100 0.0 1022356
12:00+14ю896187 0.0 1021555
15:00+13ю71066100 0.0 1020495
18:00+12ю71176100 0.0 1019422
21:00+11ю61176100 0.0 1018275
24 апреля, сб
сб2400:00+11ю587199 0.0 1018207
03:00+9ю48815 0.0 1017141
06:00+8зсз347857 0.0 101876
09:00+10сз788031 0.1 1019671
12:00+11ссз78702 0.0 1020714
15:00+12с44548 0.0 1020567
18:00+11св2354100 0.0 1020249
21:00+10ю1161100 0.0 102114
25 апреля, вс
вс2500:00+9сз5771100 0.0 1022249
03:00+8сз4775100 0.0 1021222
06:00+8с4670100 0.0 1021287
09:00+10с5654100 0.0 1021654
12:00+10с5647100 0.0 1021800
15:00+10с4444100 0.0 1021696
18:00+10св3444100 0.0 1020336
21:00+8юв114978 0.0 102126